Location: Cointrin
(46.2167°N, 6.1167°E)
Time: 19:07:29
(UTC+00:00)

Cosmos 1356 Rocket - Pass Details

Date: 08 February 2023
Orbit: 539 x 590 km, 81.2° (Epoch: 22 March)

Event Time Altitude Azimuth Distance (km) Brightness Sun altitude
Rises 18:49:57 0° 188° (S) 2,689 6.9 -21.1°
Reaches altitude 10° 18:52:06 10° 188° (S) 1,798 6.0 -21.4°
Maximum altitude 18:56:03 87° 102° (ESE) 547 3.1 -22.1°
Enters shadow 18:56:31 69° 18° (NNE) 583 3.2 -22.2°
